Weather History for Cheraw, SC

Change the Weather History Date:

Thursday, November 1, 2012

  Actual Average (KFLO) Record (KFLO)
Temperature  
Mean Temperature 46 °F 60 °F  
Max Temperature 60 °F 71 °F 87 °F (1974)
Min Temperature 32 °F 48 °F 32 °F (1954)
Degree Days  
Heating Degree Days 19 7  
Month to date heating degree days 7  
Since 1 July heating degree days 124  
Cooling Degree Days 0 1  
Month to date cooling degree days 1  
Year to date cooling degree days 2043  
Moisture  
Dew Point 34 °F    
Average Humidity 70    
Maximum Humidity 100    
Minimum Humidity 34    
Precipitation  
Precipitation 0.00 in 0.09 in 1.98 in (1969)
Month to date precipitation 0.09  
Year to date precipitation 37.32  
Sea Level Pressure  
Sea Level Pressure 29.82 in    
Wind  
Wind Speed 10 mph (West)    
Max Wind Speed 26 mph    
Max Gust Speed 44 mph    
Visibility 10 miles    
Events      
T = Trace of Precipitation, MM = Missing Value Source: NWS Daily Summary

Daily Weather History Graph

Daily Weather History Graph

Search for Another Location

Airport:

Trip Planner

Search our weather history database for the weather conditions in past years. The results will help you decide how hot, cold, wet, or windy it might be!

Date:

Astronomy

Nov. 01, 2012 Rise Set
Actual Time 7:40 AM EDT 6:25 PM EDT
Civil Twilight 7:14 AM EDT 6:51 PM EDT
Nautical Twilight 6:44 AM EDT 7:21 PM EDT
Astronomical Twilight 6:15 AM EDT 7:50 PM EDT
Moon 8:26 PM EDT (11/1) 10:07 AM EDT (11/1)
Length of Visible Light 11h 36m
Length of Day
10h 44m
Waning Gibbous, 93% of the Moon is Illuminated
Nov 1
Waning Gibbous
Nov 6
Last Quarter
Nov 13
New
Nov 20
First Quarter
Nov 28
Full

Hourly Weather History & Observations

Time (EDT) Temp. Windchill Dew Point Humidity Pressure Visibility Wind Dir Wind Speed Gust Speed Precip Events Conditions
12:15 AM 35.6 °F 31.7 °F 35.6 °F 100% 29.81 in 10.0 mi West 4.6 mph - N/A   Overcast
12:35 AM 35.6 °F 32.8 °F 35.6 °F 100% 29.81 in 10.0 mi WSW 3.5 mph - N/A   Overcast
12:55 AM 37.4 °F 34.9 °F 35.6 °F 93% 29.80 in 10.0 mi West 3.5 mph - N/A   Overcast
1:15 AM 35.6 °F 32.8 °F 35.6 °F 100% 29.80 in 10.0 mi SW 3.5 mph - N/A   Overcast
1:35 AM 35.6 °F - 35.6 °F 100% 29.80 in 10.0 mi Calm Calm - N/A   Overcast
1:55 AM 35.6 °F 29.9 °F 33.8 °F 93% 29.80 in 10.0 mi WSW 6.9 mph - N/A   Overcast
2:15 AM 33.8 °F 25.8 °F 33.8 °F 100% 29.80 in 10.0 mi SW 10.4 mph - N/A   Overcast
2:35 AM 35.6 °F 32.8 °F 35.6 °F 100% 29.80 in 10.0 mi West 3.5 mph - N/A   Overcast
2:55 AM 33.8 °F - 33.8 °F 100% 29.80 in 10.0 mi Calm Calm - N/A   Overcast
3:15 AM 32.0 °F 25.6 °F 32.0 °F 100% 29.80 in 10.0 mi West 6.9 mph - N/A   Overcast
3:35 AM 33.8 °F - 33.8 °F 100% 29.79 in 10.0 mi Calm Calm - N/A   Overcast
3:55 AM 32.0 °F 25.6 °F 32.0 °F 100% 29.79 in 10.0 mi West 6.9 mph - N/A   Overcast
4:15 AM 33.8 °F 24.8 °F 33.8 °F 100% 29.79 in 10.0 mi West 12.7 mph - N/A   Overcast
4:35 AM 33.8 °F 27.0 °F 33.8 °F 100% 29.79 in 10.0 mi West 8.1 mph - N/A   Overcast
4:55 AM 33.8 °F 26.4 °F 33.8 °F 100% 29.79 in 10.0 mi West 9.2 mph - N/A   Overcast
5:15 AM 33.8 °F 25.8 °F 33.8 °F 100% 29.80 in 10.0 mi West 10.4 mph - N/A   Overcast
5:35 AM 33.8 °F 24.3 °F 33.8 °F 100% 29.80 in 10.0 mi West 13.8 mph - N/A   Overcast
5:55 AM 33.8 °F 24.3 °F 32.0 °F 93% 29.80 in 10.0 mi WSW 13.8 mph - N/A   Overcast
6:15 AM 33.8 °F 24.3 °F 33.8 °F 100% 29.80 in 10.0 mi WSW 13.8 mph - N/A   Overcast
6:35 AM 33.8 °F 24.3 °F 33.8 °F 100% 29.80 in 10.0 mi West 13.8 mph - N/A   Overcast
6:55 AM 33.8 °F 23.9 °F 33.8 °F 100% 29.81 in 10.0 mi WSW 15.0 mph - N/A   Overcast
7:15 AM 33.8 °F 23.5 °F 32.0 °F 93% 29.82 in 10.0 mi WSW 16.1 mph - N/A   Overcast
7:35 AM 33.8 °F 23.9 °F 32.0 °F 93% 29.82 in 10.0 mi West 15.0 mph - N/A   Overcast
7:55 AM 33.8 °F 23.2 °F 32.0 °F 93% 29.83 in 10.0 mi WSW 17.3 mph - N/A   Overcast
8:15 AM 33.8 °F 23.5 °F 32.0 °F 93% 29.83 in 10.0 mi WSW 16.1 mph - N/A   Overcast
8:35 AM 35.6 °F 26.2 °F 32.0 °F 87% 29.83 in 10.0 mi West 15.0 mph 21.9 mph N/A   Overcast
8:55 AM 37.4 °F 29.8 °F 32.0 °F 81% 29.84 in 10.0 mi WSW 11.5 mph - N/A   Overcast
9:15 AM 37.4 °F 30.8 °F 33.8 °F 87% 29.84 in 10.0 mi West 9.2 mph 17.3 mph N/A   Overcast
9:35 AM 41.0 °F 34.7 °F 35.6 °F 81% 29.85 in 10.0 mi West 10.4 mph 17.3 mph N/A   Overcast
9:55 AM 42.8 °F 37.0 °F 35.6 °F 76% 29.85 in 10.0 mi West 10.4 mph 18.4 mph N/A   Overcast
10:15 AM 46.4 °F 41.5 °F 35.6 °F 66% 29.86 in 10.0 mi West 10.4 mph - N/A   Overcast
10:35 AM 50.0 °F - 33.8 °F 54% 29.86 in 10.0 mi NW 11.5 mph 19.6 mph N/A   Overcast
10:55 AM 51.8 °F - 33.8 °F 50% 29.86 in 10.0 mi WNW 16.1 mph 23.0 mph N/A   Overcast
11:15 AM 53.6 °F - 33.8 °F 47% 29.85 in 10.0 mi West 12.7 mph 19.6 mph N/A   Overcast
11:35 AM 55.4 °F - 33.8 °F 44% 29.85 in 10.0 mi West 19.6 mph 27.6 mph N/A   Overcast
11:55 AM 55.4 °F - 32.0 °F 41% 29.84 in 10.0 mi West 17.3 mph 27.6 mph N/A   Overcast
12:15 PM 55.4 °F - 32.0 °F 41% 29.84 in 10.0 mi West 17.3 mph 31.1 mph N/A   Overcast
12:35 PM 57.2 °F - 32.0 °F 38% 29.83 in 10.0 mi NW 20.7 mph 28.8 mph N/A   Overcast
12:55 PM 57.2 °F - 32.0 °F 38% 29.82 in 10.0 mi West 16.1 mph 31.1 mph N/A   Overcast
1:15 PM 60.8 °F - 32.0 °F 34% 29.81 in 10.0 mi NW 20.7 mph 31.1 mph N/A   Overcast
1:35 PM 60.8 °F - 32.0 °F 34% 29.80 in 10.0 mi NW 26.5 mph 41.4 mph N/A   Overcast
1:55 PM 60.8 °F - 33.8 °F 36% 29.79 in 10.0 mi NNW 24.2 mph 36.8 mph N/A   Overcast
2:15 PM 60.8 °F - 33.8 °F 36% 29.79 in 10.0 mi West 21.9 mph 34.5 mph N/A   Overcast
2:35 PM 60.8 °F - 33.8 °F 36% 29.78 in 10.0 mi West 19.6 mph 36.8 mph N/A   Overcast
2:55 PM 60.8 °F - 33.8 °F 36% 29.78 in 10.0 mi WNW 18.4 mph 38.0 mph N/A   Overcast
3:15 PM 60.8 °F - 33.8 °F 36% 29.78 in 10.0 mi WNW 21.9 mph 43.7 mph N/A   Overcast
3:35 PM 60.8 °F - 33.8 °F 36% 29.79 in 10.0 mi WNW 11.5 mph 31.1 mph N/A   Overcast
3:55 PM 60.8 °F - 33.8 °F 36% 29.79 in 10.0 mi WNW 23.0 mph 34.5 mph N/A   Overcast
4:15 PM 60.8 °F - 32.0 °F 34% 29.79 in 10.0 mi WNW 20.7 mph 34.5 mph N/A   Overcast
4:35 PM 60.8 °F - 32.0 °F 34% 29.79 in 10.0 mi WNW 17.3 mph 36.8 mph N/A   Overcast
4:55 PM 60.8 °F - 32.0 °F 34% 29.80 in 10.0 mi West 15.0 mph 32.2 mph N/A   Overcast
5:15 PM 60.8 °F - 32.0 °F 34% 29.80 in 10.0 mi WNW 20.7 mph 33.4 mph N/A   Overcast
5:35 PM 59.0 °F - 32.0 °F 36% 29.80 in 10.0 mi WNW 12.7 mph 25.3 mph N/A   Overcast
5:55 PM 57.2 °F - 32.0 °F 38% 29.80 in 10.0 mi West 8.1 mph 20.7 mph N/A   Overcast
6:15 PM 57.2 °F - 32.0 °F 38% 29.81 in 10.0 mi WNW 8.1 mph 16.1 mph N/A   Overcast
6:35 PM 55.4 °F - 33.8 °F 44% 29.81 in 10.0 mi West 4.6 mph - N/A   Overcast
6:55 PM 50.0 °F - 35.6 °F 58% 29.83 in 10.0 mi Calm Calm - N/A   Overcast
7:15 PM 48.2 °F - 35.6 °F 62% 29.84 in 10.0 mi Calm Calm - N/A   Overcast
7:35 PM 48.2 °F - 35.6 °F 62% 29.84 in 10.0 mi South 3.5 mph - N/A   Overcast
7:55 PM 46.4 °F 43.5 °F 35.6 °F 66% 29.84 in 10.0 mi West 5.8 mph - N/A   Overcast
8:15 PM 46.4 °F 42.4 °F 35.6 °F 66% 29.85 in 10.0 mi WSW 8.1 mph - N/A   Overcast
8:35 PM 44.6 °F 39.7 °F 35.6 °F 71% 29.85 in 10.0 mi WSW 9.2 mph - N/A   Overcast
8:55 PM 44.6 °F 40.2 °F 35.6 °F 71% 29.85 in 10.0 mi WSW 8.1 mph - N/A   Overcast
9:15 PM 44.6 °F 39.7 °F 35.6 °F 71% 29.86 in 10.0 mi WSW 9.2 mph - N/A   Overcast
9:35 PM 41.0 °F - 35.6 °F 81% 29.87 in 10.0 mi Calm Calm - N/A   Overcast
9:55 PM 44.6 °F 40.7 °F 35.6 °F 71% 29.87 in 10.0 mi West 6.9 mph - N/A   Overcast
10:15 PM 39.2 °F 33.6 °F 35.6 °F 87% 29.88 in 10.0 mi WNW 8.1 mph - N/A   Overcast
10:35 PM 42.8 °F 37.0 °F 35.6 °F 76% 29.88 in 10.0 mi WNW 10.4 mph - N/A   Overcast
10:55 PM 44.6 °F 39.7 °F 33.8 °F 66% 29.89 in 10.0 mi West 9.2 mph - N/A   Overcast
11:15 PM 42.8 °F 37.0 °F 35.6 °F 76% 29.89 in 10.0 mi West 10.4 mph - N/A   Overcast
11:35 PM 39.2 °F 33.6 °F 35.6 °F 87% 29.90 in 10.0 mi West 8.1 mph - N/A   Overcast
11:55 PM 37.4 °F 30.8 °F 35.6 °F 93% 29.90 in 10.0 mi West 9.2 mph - N/A   Overcast